PDT,Max TemperatureF,Mean TemperatureF,Min TemperatureF,Max Dew PointF,MeanDew PointF,Min DewpointF,Max Humidity, Mean Humidity, Min Humidity, Max Sea Level PressureIn, Mean Sea Level PressureIn, Min Sea Level PressureIn, Max VisibilityMiles, Mean VisibilityMiles, Min VisibilityMiles, Max Wind SpeedMPH, Mean Wind SpeedMPH, Max Gust SpeedMPH,PrecipitationIn, CloudCover, Events, WindDirDegrees
2011-10-1,76,65,54,54,48,41,80,56,31,29.88,29.81,29.73,10,10,9,28,8,33,0.04,2,Rain,168
2011-10-2,71,61,51,48,45,43,83,59,35,30.00,29.94,29.86,10,10,10,13,5,15,0.01,4,Rain,120
2011-10-3,70,56,42,47,43,39,83,60,36,29.86,29.81,29.75,10,10,10,15,4,18,0.00,0,,319
2011-10-4,55,50,45,52,48,41,96,84,71,29.78,29.73,29.60,10,9,4,15,6,20,0.15,6,Rain,141
2011-10-5,52,50,47,49,47,44,93,90,86,29.60,29.53,29.49,10,9,3,6,3,6,0.14,8,Rain,344
2011-10-6,50,49,47,49,48,46,100,97,93,29.89,29.75,29.60,10,5,0,14,6,16,0.03,8,Fog-Rain,150
2011-10-7,61,47,33,48,44,34,93,72,51,30.15,29.95,29.84,10,8,2,12,6,14,0.00,6,,186
2011-10-8,59,43,26,42,34,25,100,76,51,30.30,30.23,30.15,10,8,1,8,2,15,0.00,1,,70
2011-10-9,55,45,34,44,41,33,93,80,66,30.13,30.04,29.88,10,10,10,8,3,10,0.01,5,,17
2011-10-10,55,50,44,50,47,42,93,82,71,29.87,29.67,29.60,10,7,2,14,4,18,0.33,8,Rain,157
2011-10-11,61,55,48,48,44,38,93,70,46,29.99,29.75,29.61,10,10,6,25,12,32,0.05,5,Rain,197
2011-10-12,56,47,38,42,38,34,89,68,46,30.20,30.15,30.04,10,10,10,16,7,24,0.00,2,,192
2011-10-13,58,43,28,38,33,27,100,70,39,30.22,30.17,30.12,10,9,2,7,2,12,0.00,0,,187
2011-10-14,54,47,40,39,35,33,85,68,50,30.11,30.05,29.99,10,10,10,13,5,15,0.01,7,,18
2011-10-15,58,43,28,41,35,27,100,70,40,30.14,30.07,29.99,10,7,0,12,2,14,0.00,1,Fog,296
2011-10-16,58,43,28,34,32,30,92,65,38,30.30,30.14,30.06,10,10,9,13,5,16,0.00,0,,353
2011-10-17,57,43,28,43,38,27,100,79,57,30.47,30.40,30.31,10,8,1,7,2,8,0.00,5,,16
2011-10-18,62,49,36,40,38,36,100,72,43,30.46,30.33,30.09,10,10,8,13,8,17,0.00,0,,21
2011-10-19,59,45,31,43,38,31,100,77,53,30.07,30.02,29.96,10,10,8,10,2,14,T,2,Rain,172
2011-10-20,58,49,40,45,43,39,93,78,62,30.12,30.07,30.03,10,10,10,10,3,13,0.00,6,,171
2011-10-21,56,44,32,48,40,32,100,86,71,30.20,30.16,30.11,10,6,0,14,3,18,T,5,Fog-Rain,233
2011-10-22,61,54,46,52,48,44,93,75,57,30.19,30.13,30.04,10,9,4,18,8,23,0.16,7,Rain,178
2011-10-23,59,45,30,46,40,31,100,72,43,30.14,30.07,29.99,10,9,1,13,4,15,0.00,0,,197
2011-10-24,53,38,23,38,30,25,100,68,35,30.30,30.08,29.97,10,5,0,12,2,15,0.00,4,Fog,297
2011-10-25,52,35,18,32,25,18,96,64,32,30.46,30.40,30.30,10,10,7,10,1,14,0.00,0,,3
2011-10-26,44,30,16,32,25,16,100,79,57,30.45,30.33,30.20,10,9,2,7,1,8,0.00,3,,69
2011-10-27,49,33,17,31,22,14,96,68,39,30.35,30.28,30.17,10,8,0,6,1,7,0.00,1,Fog,212
2011-10-28,48,35,21,39,29,20,92,73,53,30.31,30.11,29.92,10,10,10,23,6,29,0.04,4,,1
2011-10-29,53,39,25,38,31,25,100,72,44,30.32,30.17,29.96,10,5,0,13,2,15,0.00,2,Fog,132
2011-10-30,47,36,25,42,35,25,100,85,70,30.28,30.13,29.97,10,10,10,8,3,9,T,6,,39
2011-10-31,54,40,25,42,30,23,100,67,33,30.29,30.15,29.99,10,10,10,15,7,21,T,3,,219